sat.trackr.live / text

‹ back to catalog

ICEYE-X36

NORAD 59103 · 2024-043F

PAYLOAD ACTIVE UNKNOWN

§ Identity

Operator
Country
US
Launch date
2024-03-04
Launch site
AFWTR
Launch vehicle
Mass (kg)
RCS (m²)

External: N2YO · Heavens-Above · Gunter

§ Orbital elements

Epoch: 2026-09-22T00:54:02.547936Z

Period
95.51 min
Inclination
97.8497°
Eccentricity
0.0005771
Mean motion
15.07652335 rev/d
Perigee alt
539.4 km
Apogee alt
547.4 km
Semi-major
6,921.5 km
B*
1.2644e-4
RAAN
44.9611°
Arg perigee
7.0979°
Mean anomaly
353.0329°
Rev number
13,973

§ Raw data

ICEYE-X361 59103U 24043F   26265.03752949  .00001861  00000+0  12644-3 0  99962 59103  97.8497  44.9611 0005771   7.0979 353.0329 15.07652335139736

JSON: /api/v1/satellites/59103 · /tle

For live sub-satellite position, see the globe view (requires WebGL).

§ Visibility from observer

Set your observer location to see the next 7 days of passes ≥ 10°. The values pass through the URL so the page stays shareable.

No JS? Fill the form by hand. The geolocation button needs JavaScript.